When you browse on this site, cookies collect data to enhance your experience and personalize the content and advertising you see.
Visit our Privacy Policy to learn more. By continuing to use the site, you agree to this use of cookies and data.
  • In Germany
  • List of Countries
  • For 7 days
  • Water Temperature
  • Weather Map
  • Weather Widgets
  • user-avatar
    Login

    Hourly Weather Berat

    Today, 10 December, Tuesday

    Time Temperature Precipitation Wind Pressure Humidity
    00:00 +12°C° 0.3 mm 2 mps 739 mmHg 83%
    01:00 +12°C° 0 mm 2 mps 739 mmHg 87%
    02:00 +12°C° 1.2 mm 2 mps 739 mmHg 88%
    03:00 +10°C° 1.2 mm 2 mps 738 mmHg 89%
    04:00 +10°C° 1.2 mm 2 mps 738 mmHg 90%
    05:00 +11°C° 1.9 mm 1 mps 738 mmHg 91%
    06:00 +11°C° 1.9 mm 1 mps 738 mmHg 92%
    07:00 +10°C° 0 mm 2 mps 739 mmHg 92%
    08:00 +10°C° 1 mm 2 mps 738 mmHg 91%
    09:00 +10°C° 1 mm 2 mps 738 mmHg 90%
    10:00 +10°C° 1 mm 2 mps 738 mmHg 89%
    11:00 +12°C° 0.6 mm 2 mps 738 mmHg 88%
    12:00 +12°C° 0.6 mm 2 mps 738 mmHg 87%
    13:00 +12°C° 0.6 mm 2 mps 738 mmHg 85%
    14:00 +12°C° 0.4 mm 2 mps 737 mmHg 86%
    15:00 +10°C° 0.4 mm 2 mps 737 mmHg 87%
    16:00 +11°C° 0.4 mm 1 mps 737 mmHg 87%
    17:00 +11°C° 0.1 mm 1 mps 737 mmHg 87%
    18:00 +11°C° 0.1 mm 1 mps 737 mmHg 86%
    19:00 +11°C° 0.1 mm 1 mps 737 mmHg 86%
    20:00 +11°C° 0.1 mm 1 mps 737 mmHg 86%
    21:00 +11°C° 0.1 mm 1 mps 737 mmHg 85%
    22:00 +11°C° 0.1 mm 1 mps 737 mmHg 85%
    23:00 +11°C° 0.1 mm 1 mps 737 mmHg 85%

    Tomorrow, 11 December, Wednesday

    Time Temperature Precipitation Wind Pressure Humidity
    00:00 +10°C° 0.1 mm 2 mps 738 mmHg 85%
    01:00 +10°C° 0.1 mm 2 mps 738 mmHg 85%
    02:00 +10°C° 0.1 mm 2 mps 737 mmHg 85%
    03:00 +9°C° 0.1 mm 2 mps 737 mmHg 85%
    04:00 +9°C° 0.1 mm 2 mps 737 mmHg 84%
    05:00 +9°C° 0 mm 2 mps 737 mmHg 84%
    06:00 +9°C° 0 mm 2 mps 737 mmHg 84%
    07:00 +9°C° 0 mm 2 mps 737 mmHg 84%
    08:00 +10°C° 0 mm 2 mps 738 mmHg 80%
    09:00 +10°C° 0 mm 2 mps 738 mmHg 77%
    10:00 +12°C° 0 mm 2 mps 738 mmHg 73%
    11:00 +12°C° 0 mm 2 mps 738 mmHg 71%
    12:00 +12°C° 0 mm 3 mps 738 mmHg 69%
    13:00 +12°C° 0 mm 3 mps 738 mmHg 66%
    14:00 +13°C° 0 mm 2 mps 738 mmHg 69%
    15:00 +12°C° 0 mm 2 mps 738 mmHg 71%
    16:00 +10°C° 0 mm 2 mps 738 mmHg 73%
    17:00 +10°C° 0 mm 2 mps 738 mmHg 75%
    18:00 +9°C° 0 mm 2 mps 738 mmHg 77%
    19:00 +8°C° 0 mm 2 mps 738 mmHg 78%
    20:00 +8°C° 0 mm 2 mps 738 mmHg 79%
    21:00 +8°C° 0 mm 2 mps 738 mmHg 80%
    22:00 +7°C° 0 mm 2 mps 738 mmHg 80%
    23:00 +7°C° 0 mm 2 mps 738 mmHg 81%

    Day after tomorrow, 12 December, Thursday

    Time Temperature Precipitation Wind Pressure Humidity
    00:00 +7°C° 0 mm 2 mps 738 mmHg 81%
    01:00 +7°C° 0 mm 2 mps 738 mmHg 81%
    02:00 +7°C° 0 mm 2 mps 737 mmHg 81%
    03:00 +7°C° 0 mm 2 mps 737 mmHg 81%
    04:00 +7°C° 0 mm 2 mps 737 mmHg 81%
    05:00 +6°C° 0 mm 2 mps 737 mmHg 81%
    06:00 +6°C° 0 mm 2 mps 737 mmHg 81%
    07:00 +7°C° 0 mm 1 mps 737 mmHg 81%
    08:00 +9°C° 0 mm 1 mps 737 mmHg 76%
    09:00 +10°C° 0 mm 1 mps 737 mmHg 71%
    10:00 +12°C° 0 mm 1 mps 737 mmHg 66%
    11:00 +13°C° 0 mm 1 mps 737 mmHg 64%
    12:00 +13°C° 0 mm 1 mps 737 mmHg 63%
    13:00 +14°C° 0 mm 1 mps 737 mmHg 61%
    14:00 +13°C° 0 mm 1 mps 737 mmHg 67%
    15:00 +12°C° 0 mm 1 mps 737 mmHg 72%
    16:00 +11°C° 0 mm 1 mps 736 mmHg 78%
    17:00 +11°C° 0 mm 1 mps 737 mmHg 80%
    18:00 +9°C° 0 mm 0 mps 737 mmHg 81%
    19:00 +9°C° 0 mm 0 mps 737 mmHg 83%
    20:00 +9°C° 0 mm 0 mps 737 mmHg 83%
    21:00 +10°C° 0 mm 1 mps 737 mmHg 83%
    22:00 +10°C° 0 mm 1 mps 737 mmHg 83%
    23:00 +10°C° 0 mm 1 mps 737 mmHg 84%

    13 December, Friday

    Time Temperature Precipitation Wind Pressure Humidity
    00:00 +9°C° 0 mm 1 mps 737 mmHg 84%
    01:00 +8°C° 0 mm 2 mps 736 mmHg 85%
    02:00 +8°C° 0.1 mm 2 mps 736 mmHg 84%
    03:00 +8°C° 0.1 mm 2 mps 736 mmHg 84%
    04:00 +8°C° 0.1 mm 2 mps 736 mmHg 83%
    05:00 +8°C° 0.3 mm 2 mps 736 mmHg 85%
    06:00 +9°C° 0.3 mm 1 mps 736 mmHg 87%
    07:00 +9°C° 0.3 mm 1 mps 736 mmHg 88%
    08:00 +9°C° 0.2 mm 2 mps 736 mmHg 85%
    09:00 +9°C° 0.2 mm 2 mps 736 mmHg 82%
    10:00 +10°C° 0.2 mm 2 mps 736 mmHg 79%
    11:00 +12°C° 0.3 mm 2 mps 735 mmHg 76%
    12:00 +11°C° 0.3 mm 3 mps 735 mmHg 72%
    13:00 +12°C° 0.3 mm 3 mps 735 mmHg 69%
    14:00 +11°C° 0.1 mm 3 mps 734 mmHg 72%
    15:00 +12°C° 0.1 mm 2 mps 734 mmHg 74%
    16:00 +10°C° 0.1 mm 2 mps 734 mmHg 77%
    17:00 +9°C° 0 mm 3 mps 733 mmHg 78%
    18:00 +9°C° 0 mm 3 mps 733 mmHg 80%
    19:00 +8°C° 0 mm 4 mps 732 mmHg 81%
    20:00 +8°C° 0 mm 4 mps 732 mmHg 82%
    21:00 +7°C° 0 mm 4 mps 731 mmHg 82%
    22:00 +7°C° 0 mm 4 mps 731 mmHg 83%
    23:00 +8°C° 0.3 mm 4 mps 730 mmHg 84%

    14 December, Saturday

    Time Temperature Precipitation Wind Pressure Humidity
    00:00 +8°C° 0.3 mm 4 mps 729 mmHg 84%
    01:00 +8°C° 0.3 mm 4 mps 728 mmHg 85%
    02:00 +8°C° 3.7 mm 4 mps 728 mmHg 87%
    03:00 +8°C° 3.7 mm 4 mps 727 mmHg 90%
    04:00 +9°C° 3.7 mm 3 mps 726 mmHg 92%
    05:00 +8°C° 4 mm 4 mps 726 mmHg 91%
    06:00 +8°C° 4 mm 4 mps 727 mmHg 91%
    07:00 +8°C° 4 mm 4 mps 727 mmHg 90%
    08:00 +8°C° 1.8 mm 4 mps 728 mmHg 88%
    09:00 +10°C° 1.8 mm 3 mps 729 mmHg 86%
    10:00 +10°C° 1.8 mm 3 mps 730 mmHg 85%
    11:00 +12°C° 0.1 mm 2 mps 730 mmHg 80%
    12:00 +13°C° 0.1 mm 2 mps 731 mmHg 76%
    13:00 +14°C° 0.1 mm 2 mps 732 mmHg 72%
    14:00 +13°C° 0 mm 2 mps 733 mmHg 76%
    15:00 +13°C° 0 mm 1 mps 734 mmHg 79%
    16:00 +12°C° 0 mm 1 mps 735 mmHg 82%
    17:00 +12°C° 0 mm 1 mps 736 mmHg 84%
    18:00 +11°C° 0 mm 1 mps 737 mmHg 85%
    19:00 +11°C° 0 mm 1 mps 739 mmHg 86%
    20:00 +11°C° 0 mm 1 mps 739 mmHg 86%
    21:00 +10°C° 0 mm 1 mps 740 mmHg 85%
    22:00 +10°C° 0 mm 1 mps 741 mmHg 85%
    23:00 +10°C° 0 mm 1 mps 742 mmHg 84%

    15 December, Sunday

    Time Temperature Precipitation Wind Pressure Humidity
    00:00 +10°C° 0 mm 1 mps 742 mmHg 84%
    01:00 +10°C° 0 mm 1 mps 743 mmHg 83%
    02:00 +10°C° 0 mm 1 mps 743 mmHg 83%
    03:00 +10°C° 0 mm 1 mps 744 mmHg 82%
    04:00 +10°C° 0 mm 1 mps 744 mmHg 82%
    05:00 +9°C° 0 mm 2 mps 745 mmHg 81%
    06:00 +9°C° 0 mm 2 mps 745 mmHg 81%
    07:00 +9°C° 0 mm 2 mps 746 mmHg 81%
    08:00 +12°C° 0 mm 2 mps 746 mmHg 77%
    09:00 +13°C° 0 mm 1 mps 747 mmHg 73%
    10:00 +15°C° 0 mm 1 mps 747 mmHg 69%
    11:00 +16°C° 0 mm 1 mps 747 mmHg 67%
    12:00 +18°C° 0 mm 1 mps 747 mmHg 64%
    13:00 +18°C° 0 mm 1 mps 747 mmHg 61%
    14:00 +16°C° 0 mm 1 mps 747 mmHg 67%
    15:00 +15°C° 0 mm 1 mps 748 mmHg 73%
    16:00 +13°C° 0 mm 0 mps 748 mmHg 79%
    17:00 +14°C° 0 mm 1 mps 748 mmHg 80%
    18:00 +13°C° 0 mm 1 mps 748 mmHg 80%
    19:00 +13°C° 0 mm 1 mps 749 mmHg 81%
    20:00 +13°C° 0 mm 1 mps 749 mmHg 80%
    21:00 +12°C° 0 mm 1 mps 749 mmHg 80%
    22:00 +12°C° 0 mm 1 mps 750 mmHg 80%
    23:00 +12°C° 0 mm 1 mps 750 mmHg 80%
    Show more